TimeCDT,TemperatureF,Dew PointF,Humidity,Sea Level PressureIn,VisibilityMPH,Wind Direction,Wind SpeedMPH,Gust SpeedMPH,PrecipitationIn,Events,Conditions,WindDirDegrees,DateUTC
12:53 AM,30.9,27.0,85,30.16,10.0,NNW,9.2,-,N/A,,Overcast,330,2013-04-18 05:53:00
1:53 AM,30.0,27.0,88,30.13,8.0,NNW,12.7,-,N/A,,Overcast,330,2013-04-18 06:53:00
2:53 AM,30.0,27.0,88,30.09,10.0,North,11.5,-,N/A,,Overcast,350,2013-04-18 07:53:00
3:19 AM,30.2,26.6,86,30.04,10.0,North,11.5,-,N/A,,Overcast,350,2013-04-18 08:19:00
3:35 AM,30.2,26.6,86,30.03,10.0,North,12.7,-,N/A,,Overcast,360,2013-04-18 08:35:00
3:53 AM,30.0,27.0,88,30.08,10.0,North,13.8,-,N/A,,Overcast,350,2013-04-18 08:53:00
3:59 AM,30.2,26.6,86,30.03,10.0,North,13.8,-,N/A,,Overcast,350,2013-04-18 08:59:00
4:11 AM,30.2,26.6,86,30.03,10.0,NNW,13.8,-,N/A,,Overcast,340,2013-04-18 09:11:00
4:53 AM,30.0,27.0,88,30.07,10.0,NNW,13.8,-,N/A,,Overcast,340,2013-04-18 09:53:00
5:11 AM,30.2,26.6,86,30.05,9.0,NNW,10.4,-,N/A,,Overcast,340,2013-04-18 10:11:00
5:25 AM,30.2,26.6,86,30.04,10.0,NNW,11.5,-,N/A,,Overcast,340,2013-04-18 10:25:00
5:53 AM,30.0,27.0,88,30.06,10.0,NNW,12.7,-,N/A,,Overcast,340,2013-04-18 10:53:00
6:24 AM,30.2,26.6,86,30.03,2.0,NNW,12.7,-,0.00,Snow,Light Snow,340,2013-04-18 11:24:00
6:53 AM,28.9,27.0,92,30.06,2.0,NNW,15.0,-,0.00,Snow,Light Snow,340,2013-04-18 11:53:00
7:33 AM,28.4,26.6,93,30.00,2.0,NNW,16.1,-,0.00,Snow,Light Snow,340,2013-04-18 12:33:00
7:53 AM,28.9,26.1,89,30.05,2.0,NNW,15.0,-,0.00,,Overcast,340,2013-04-18 12:53:00
8:16 AM,28.4,26.6,93,29.99,3.0,North,17.3,-,0.00,Snow,Light Snow,350,2013-04-18 13:16:00
8:53 AM,30.9,28.0,89,30.03,4.0,North,16.1,-,0.00,Snow,Light Snow,350,2013-04-18 13:53:00
9:53 AM,32.0,28.9,88,30.01,10.0,North,16.1,-,0.00,,Overcast,350,2013-04-18 14:53:00
10:44 AM,33.8,30.2,87,29.97,10.0,North,16.1,-,N/A,,Mostly Cloudy,360,2013-04-18 15:44:00
10:53 AM,35.1,28.9,78,30.00,10.0,North,16.1,-,N/A,,Mostly Cloudy,350,2013-04-18 15:53:00
11:18 AM,33.8,28.4,81,29.96,10.0,North,20.7,-,N/A,,Mostly Cloudy,350,2013-04-18 16:18:00
11:38 AM,33.8,28.4,81,29.95,10.0,North,19.6,-,N/A,,Mostly Cloudy,350,2013-04-18 16:38:00
11:53 AM,34.0,28.9,82,29.98,10.0,North,20.7,-,N/A,,Mostly Cloudy,350,2013-04-18 16:53:00
12:53 PM,36.0,30.0,79,29.96,10.0,North,25.3,-,N/A,,Mostly Cloudy,350,2013-04-18 17:53:00
1:53 PM,36.0,28.0,73,29.95,10.0,NNW,25.3,32.2,N/A,,Mostly Cloudy,340,2013-04-18 18:53:00
2:53 PM,36.0,24.1,62,29.96,10.0,North,21.9,28.8,N/A,,Mostly Cloudy,350,2013-04-18 19:53:00
3:53 PM,36.0,26.1,67,29.93,10.0,NNW,23.0,-,N/A,,Mostly Cloudy,340,2013-04-18 20:53:00
4:53 PM,37.0,26.1,65,29.91,10.0,NNW,21.9,-,N/A,,Mostly Cloudy,340,2013-04-18 21:53:00
5:53 PM,36.0,24.1,62,29.91,10.0,NNW,24.2,32.2,N/A,,Mostly Cloudy,340,2013-04-18 22:53:00
6:53 PM,36.0,24.1,62,29.91,10.0,NNW,23.0,31.1,N/A,,Mostly Cloudy,340,2013-04-18 23:53:00
7:53 PM,34.0,24.1,67,29.91,10.0,NNW,20.7,-,N/A,,Scattered Clouds,340,2013-04-19 00:53:00
8:53 PM,33.1,23.0,66,29.91,10.0,NNW,20.7,27.6,N/A,,Scattered Clouds,340,2013-04-19 01:53:00
9:53 PM,32.0,23.0,69,29.91,10.0,NNW,19.6,-,N/A,,Clear,340,2013-04-19 02:53:00
10:53 PM,32.0,21.9,66,29.89,10.0,NNW,19.6,-,N/A,,Clear,340,2013-04-19 03:53:00
11:53 PM,30.9,21.9,69,29.88,10.0,NNW,16.1,-,N/A,,Clear,340,2013-04-19 04:53:00